Location: Beckers Corners
(42.5484°N, 73.8110°W)
Time: 06:31:25
(UTC+00:00)

DIWATA 2B (PO-101) - Pass Details

Date: 11 December 2024
Orbit: 569 x 582 km, 98.1° (Epoch: 18 January)

Event Time Altitude Azimuth Distance (km) Brightness Sun altitude
Rises 22:41:20 0° 2° (N) 2,790 ? -14.0°
Reaches altitude 10° 22:43:42 10° 350° (N) 1,885 ? -14.5°
Maximum altitude 22:47:11 28° 292° (WNW) 1,086 ? -15.1°
Drops below altitude 10° 22:50:40 10° 232° (SW) 1,868 ? -15.7°
Sets 22:53:00 0° 221° (SW) 2,759 ? -16.1°
